[[{"header":{"parameterUnit":"m.s-1","parameterCategory":1,"la1":30.2991,"la2":30.254,"lo1":-89.0895,"lo2":-89.0444,"dy":0.0017,"dx":0.0017,"nx":28,"ny":28,"refTime":"2025-01-26T03:00:00:Z","depth":0,"parameterNumber":2,"parameterNumberName":"U-component_of_WINDS"},"data":[0,0,0,0,0,0,0,0,0,0,0,0,0,0,0,0,0,0,0,0,0,0,0,0,0,0,0,0,0,0,0,0,0,0,0,0,0,0,0,0,0,0,0,0,0,0,0,0,0,0,0,0,0,0,0,0,0,0,-2.0255,-2.0256,0,-2.0283,-2.0284,-2.0284,-2.0245,-2.0244,-2.0243,-2.0241,-2.0272,-2.0274,-2.0276,0,0,0,0,0,0,0,0,0,0,0,0,0,-2.017,-2.0172,-2.0255,-2.0256,-2.0256,-2.0283,-2.0284,-2.0284,-2.0246,-2.0244,-2.0242,-2.0241,-2.0271,-2.0274,-2.0276,0,0,0,0,0,0,0,0,0,0,0,0,0,-2.0204,-2.0172,-2.0255,-2.024,-2.0239,-2.0283,-2.0284,-2.0284,-2.0246,-2.0244,-2.0242,-2.024,-2.027,-2.0273,-2.0276,-2.0337,0,0,-2.0286,-2.0287,0,0,0,0,0,0,0,0,-2.0202,-2.0207,-2.0242,-2.0241,-2.024,-2.0259,-2.0265,-2.0302,-2.0247,-2.0243,-2.0241,-2.0239,-2.0269,-2.0272,-2.0282,-2.0339,-2.034,-2.0286,-2.0288,-2.0289,-2.029,0,0,0,0,0,0,0,-2.0199,-2.0205,-2.0266,-2.0243,-2.0241,-2.0232,-2.0235,-2.0271,-2.0268,-2.0244,-2.0241,-2.0245,-2.0268,-2.0279,-2.0283,-2.034,-2.0286,-2.0289,-2.0291,-2.0292,-2.0446,-2.0448,0,0,0,0,0,0,-2.0199,-2.0204,-2.0265,-2.0267,-2.0215,-2.0236,-2.0238,-2.0255,-2.0267,-2.0267,-2.0246,-2.0243,-2.0275,-2.0279,-2.0283,-2.0354,-2.0289,-2.0292,-2.0294,-2.0444,-2.0447,-2.0449,0,0,0,0,0,0,-2.0197,-2.0205,-2.0264,-2.0235,-2.0242,-2.0239,-2.0258,-2.0256,-2.0267,-2.0269,-2.0268,-2.0258,-2.0273,-2.0279,-2.0324,-2.0354,-2.0294,-2.0297,-2.0442,-2.0445,-2.0448,-2.0496,0,0,0,0,0,0,-2.0195,-2.0204,-2.0227,-2.0235,-2.0243,-2.0304,-2.026,-2.0259,-2.0273,-2.0268,-2.028,-2.028,-2.0272,-2.0319,-2.0327,-2.0357,-2.0299,-2.0439,-2.0443,-2.0447,-2.0491,-2.05,-2.0508,0,0,0,0,0,-2.0192,-2.024,-2.0228,-2.0236,-2.0272,-2.0306,-2.031,-2.03,-2.0275,-2.0298,-2.0299,-2.028,-2.035,-2.0324,-2.0332,-2.0364,-2.0437,-2.0442,-2.0447,-2.0488,-2.0499,-2.0508,0,0,0,0,0,0,-2.0236,-2.0241,-2.0228,-2.028,-2.0293,-2.0299,-2.0327,-2.0312,-2.0332,-2.0327,-2.0314,-2.0317,-2.0364,-2.0369,-2.034,-2.0423,-2.0389,-2.0396,-2.0418,-2.0428,-2.0436,-2.0433,-2.0302,0,0,0,0,0,-2.0252,-2.0279,-2.0282,-2.0328,-2.0334,-2.033,-2.0345,-2.0335,-2.0348,-2.0353,-2.0357,-2.0371,-2.0396,-2.0413,-2.0436,-2.0493,-2.0494,-2.0519,-2.0527,-2.0534,-2.0539,-2.0568,-2.0579,-2.0466,-2.0466,-2.0465,0,0,-2.0285,-2.0291,-2.0309,-2.0337,-2.0345,-2.0373,-2.0335,-2.0366,-2.0387,-2.0358,-2.0399,-2.0404,-2.0418,-2.0468,-2.049,-2.0474,-2.0571,-2.054,-2.0546,-2.0547,-2.0574,-2.0585,-2.0595,-2.0469,-2.0468,-2.0468,0,0,-2.0359,-2.0367,-2.0405,-2.0414,-2.0427,-2.0424,-2.0433,-2.0442,-2.0442,-2.0484,-2.0463,-2.0487,-2.0531,-2.0541,-2.0552,-2.063,-2.0612,-2.0638,-2.068,-2.0709,-2.0718,-2.0725,-2.0751,-2.0761,-2.0644,-2.0644,-2.0644,0,-2.0398,-2.0439,-2.0427,-2.0459,-2.0472,-2.0446,-2.0485,-2.0495,-2.0515,-2.0524,-2.0505,-2.0558,-2.0566,-2.0618,-2.0637,-2.0647,-2.0657,-2.0636,-2.0717,-2.0725,-2.0732,-2.0756,-2.0766,-2.0647,-2.0647,-2.0646,-2.0646,0,-2.0486,-2.0514,-2.0544,-2.0562,-2.0579,-2.0614,-2.0607,-2.0625,-2.0615,-2.0614,-2.0656,-2.0664,-2.0688,-2.07,-2.0691,-2.075,-2.0739,-2.0719,-2.0684,-2.0746,-2.0768,-2.0778,-2.0651,-2.065,-2.0649,-2.0648,0,0,-2.0588,-2.0599,-2.061,-2.0617,-2.0629,-2.0651,-2.0686,-2.0708,-2.0723,-2.0738,-2.0766,-2.0803,-2.0784,-2.0797,-2.0789,-2.0814,-2.0872,-2.079,-2.079,-2.0804,-2.0936,-2.095,-2.0961,-2.0861,-2.0863,-2.0865,-2.0934,0,-2.066,-2.0717,-2.0707,-2.0763,-2.0789,-2.0765,-2.0795,-2.0806,-2.0806,-2.0828,-2.0828,-2.0854,-2.0828,-2.0835,-2.0859,-2.086,-2.0898,-2.0855,-2.0886,-2.0887,-2.0881,-2.0973,-2.0988,-2.1053,-2.0943,-2.0945,-2.0946,0,-2.0751,-2.0768,-2.0826,-2.0833,-2.0844,-2.087,-2.0889,-2.0911,-2.0923,-2.0921,-2.0935,-2.0922,-2.0956,-2.0922,-2.0968,-2.0939,-2.0951,-2.0954,-2.0956,-2.0957,-2.0919,-2.0975,-2.1074,-2.1083,-2.096,-2.0959,-2.0958,0,-2.0817,-2.0855,-2.0894,-2.0901,-2.0911,-2.093,-2.0935,-2.0945,-2.0959,-2.0976,-2.0985,-2.1006,-2.1018,-2.1035,-2.1028,-2.1004,-2.1075,-2.1041,-2.1073,-2.1074,-2.1088,-2.1087,-2.1189,-2.1099,-2.1099,-2.1099,-2.1099,0,-2.0897,-2.0933,-2.0923,-2.0947,-2.0987,-2.0975,-2.1015,-2.1018,-2.1026,-2.105,-2.1033,-2.1056,-2.1046,-2.1069,-2.1064,-2.1102,-2.1108,-2.1107,-2.1105,-2.1107,-2.1107,-2.1114,-2.1108,-2.1102,-2.1101,-2.1101,-2.11,0,-2.0976,-2.0971,-2.1012,-2.1018,-2.102,-2.1049,-2.1054,-2.1076,-2.1075,-2.1105,-2.1112,-2.111,-2.1136,-2.1131,-2.116,-2.1156,-2.1203,-2.1197,-2.1199,-2.1196,-2.1228,-2.1224,-2.1336,-2.135,-2.1254,-2.1255,-2.1256,0,-2.1027,-2.1054,-2.1062,-2.1076,-2.1082,-2.1106,-2.1119,-2.111,-2.1124,-2.114,-2.116,-2.1184,-2.1202,-2.1244,-2.1245,-2.1267,-2.1259,-2.1297,-2.1263,-2.1264,-2.1258,-2.1255,-2.1257,-2.1303,-2.1305,-2.1305,-2.1306,0,-2.1116,-2.1112,-2.1132,-2.115,-2.1167,-2.1181,-2.1194,-2.1207,-2.1199,-2.1216,-2.1241,-2.1256,-2.1284,-2.1308,-2.1328,-2.1333,-2.1318,-2.1317,-2.1326,-2.1327,-2.1326,-2.1325,-2.1215,-2.1314,-2.1314,-2.1313,-2.1313,-2.1312,-2.1181,-2.1203,-2.1212,-2.1234,-2.1243,-2.1255,-2.1275,-2.1276,-2.1297,-2.1319,-2.1312,-2.1341,-2.1351,-2.1376,-2.1384,-2.1407,-2.1393,-2.1405,-2.1408,-2.1411,-2.1413,-2.1325,-2.1411,-2.141,-2.141,-2.141,-2.141,0,-2.1267,-2.1272,-2.1292,-2.131,-2.1328,-2.1312,-2.1325,-2.1341,-2.1366,-2.1377,-2.1395,-2.1423,-2.1446,-2.1449,-2.1471,-2.1488,-2.1481,-2.1494,-2.1491,-2.1492,-2.1426,-2.1415,-2.1498,-2.1498,-2.1498,-2.1498,-2.1498,-2.1498,-2.1314,-2.135,-2.1347,-2.1387,-2.1391,-2.1418,-2.1427,-2.1438,-2.1447,-2.1479,-2.1497,-2.1499,-2.1507,-2.1528,-2.1548,-2.1549,-2.1557,-2.1571,-2.1569,-2.1506,-2.1497,-2.1489,-2.1479,-2.1573,-2.1574,-2.1633,-2.1633,-2.1634]},{"header":{"parameterUnit":"m.s-1","parameterCategory":1,"la1":30.2991,"la2":30.254,"lo1":-89.0895,"lo2":-89.0444,"dy":0.0017,"dx":0.0017,"nx":28,"ny":28,"refTime":"2025-01-26T03:00:00:Z","depth":0,"parameterNumber":3,"parameterNumberName":"V-component_of_WINDS"},"data":[0,0,0,0,0,0,0,0,0,0,0,0,0,0,0,0,0,0,0,0,0,0,0,0,0,0,0,0,0,0,0,0,0,0,0,0,0,0,0,0,0,0,0,0,0,0,0,0,0,0,0,0,0,0,0,0,0,0,1.3454,1.3455,0,1.3538,1.3539,1.354,1.3492,1.3489,1.3487,1.3485,1.3576,1.3581,1.3585,0,0,0,0,0,0,0,0,0,0,0,0,0,1.326,1.3264,1.3454,1.3455,1.3456,1.3538,1.3539,1.354,1.3492,1.3489,1.3486,1.3484,1.3575,1.358,1.3586,0,0,0,0,0,0,0,0,0,0,0,0,0,1.3344,1.3265,1.3454,1.3442,1.3442,1.3537,1.3539,1.354,1.3493,1.3489,1.3486,1.3482,1.3573,1.358,1.3587,1.37,0,0,1.3608,1.3611,0,0,0,0,0,0,0,0,1.334,1.3352,1.3443,1.3443,1.3443,1.3501,1.3504,1.3594,1.3494,1.3474,1.3485,1.3481,1.3554,1.3563,1.3586,1.3705,1.3709,1.3608,1.3613,1.3616,1.3618,0,0,0,0,0,0,0,1.3334,1.3348,1.3488,1.3444,1.3444,1.3435,1.3443,1.3521,1.3533,1.3475,1.3472,1.3482,1.3554,1.358,1.3588,1.371,1.3608,1.3614,1.3619,1.3621,1.3929,1.3933,0,0,0,0,0,0,1.3328,1.3343,1.3485,1.349,1.3381,1.3441,1.345,1.3486,1.3532,1.3536,1.3485,1.3479,1.357,1.358,1.3591,1.373,1.3616,1.3622,1.3626,1.3925,1.393,1.3934,0,0,0,0,0,0,1.3324,1.3341,1.3481,1.3416,1.3433,1.3448,1.3489,1.3489,1.3515,1.3539,1.3542,1.3509,1.3567,1.3581,1.3674,1.3732,1.3625,1.3632,1.392,1.3927,1.3932,1.4007,0,0,0,0,0,0,1.3319,1.334,1.3382,1.3417,1.3436,1.3561,1.3492,1.3494,1.3527,1.352,1.3562,1.3566,1.3565,1.3664,1.3681,1.374,1.3637,1.3915,1.3923,1.393,1.4,1.4015,1.4028,0,0,0,0,0,1.3312,1.34,1.3384,1.3402,1.3489,1.3565,1.3576,1.3572,1.3531,1.3575,1.3591,1.3565,1.3722,1.3674,1.3692,1.3755,1.3912,1.3921,1.393,1.3993,1.4012,1.4028,0,0,0,0,0,0,1.3374,1.3405,1.3387,1.3489,1.3524,1.3556,1.3611,1.3591,1.364,1.3633,1.3627,1.3637,1.3734,1.3753,1.3698,1.3869,1.3811,1.3824,1.3853,1.3871,1.3885,1.388,1.3643,0,0,0,0,0,1.3399,1.3456,1.348,1.3568,1.3586,1.3596,1.3629,1.3622,1.3659,1.3675,1.3697,1.3736,1.3794,1.3833,1.3888,1.4001,1.4012,1.4053,1.4067,1.4079,1.4092,1.4156,1.4176,1.3964,1.3964,1.3964,0,0,1.3452,1.3476,1.3513,1.3581,1.3608,1.3669,1.3609,1.3676,1.3723,1.3685,1.3775,1.3792,1.3835,1.3939,1.3986,1.3958,1.4152,1.4091,1.41,1.4106,1.4167,1.4187,1.4205,1.397,1.3969,1.3968,0,0,1.3582,1.3604,1.3681,1.3708,1.3748,1.3754,1.3772,1.3808,1.3818,1.3906,1.388,1.3936,1.4036,1.4069,1.4099,1.4241,1.422,1.4259,1.4335,1.4397,1.4414,1.4429,1.4483,1.4502,1.427,1.4271,1.4271,0,1.3644,1.3733,1.3723,1.3793,1.3825,1.3792,1.3871,1.3899,1.3956,1.3981,1.3947,1.4074,1.41,1.4213,1.4247,1.4271,1.4295,1.4255,1.4412,1.4427,1.444,1.4492,1.4512,1.4275,1.4275,1.4274,1.4274,0,1.3809,1.3872,1.3929,1.3984,1.4022,1.4096,1.41,1.414,1.413,1.414,1.4232,1.4263,1.4324,1.435,1.4341,1.4462,1.4444,1.4411,1.4354,1.4465,1.4514,1.4533,1.4282,1.428,1.4279,1.4278,0,0,1.3982,1.4029,1.4051,1.4076,1.4118,1.4167,1.4241,1.4299,1.4336,1.4376,1.444,1.4525,1.4496,1.453,1.4524,1.4579,1.4693,1.454,1.4541,1.457,1.4832,1.4859,1.4882,1.4678,1.4682,1.4685,1.483,0,1.4116,1.4242,1.4236,1.4356,1.4415,1.4385,1.4449,1.4484,1.4495,1.4549,1.4561,1.4624,1.4578,1.4599,1.4651,1.4668,1.4747,1.4657,1.4741,1.4744,1.4735,1.4906,1.4935,1.507,1.4848,1.4851,1.4854,0,1.429,1.4335,1.446,1.4495,1.452,1.4578,1.4632,1.4682,1.4722,1.4726,1.4764,1.475,1.4827,1.4766,1.4874,1.4814,1.4847,1.4861,1.4866,1.4877,1.4808,1.4925,1.5113,1.5134,1.4883,1.488,1.4878,0,1.4408,1.4499,1.4587,1.4609,1.465,1.4692,1.4712,1.4747,1.4783,1.4831,1.4855,1.4912,1.4944,1.4989,1.4992,1.4946,1.5103,1.504,1.5112,1.5112,1.5149,1.5147,1.5348,1.5165,1.5165,1.5164,1.5164,0,1.456,1.4639,1.464,1.4695,1.4783,1.4775,1.4863,1.4879,1.4911,1.497,1.4946,1.5003,1.5001,1.5059,1.5062,1.5153,1.5167,1.5175,1.5176,1.518,1.5179,1.5204,1.5196,1.517,1.5168,1.5167,1.5166,0,1.4708,1.4711,1.4805,1.4836,1.4846,1.491,1.4938,1.4991,1.4999,1.5074,1.5092,1.5106,1.5173,1.518,1.5258,1.526,1.5371,1.536,1.5358,1.5357,1.543,1.5424,1.5657,1.5689,1.5481,1.5483,1.5485,0,1.4807,1.4867,1.4904,1.494,1.4962,1.5021,1.5058,1.5053,1.5092,1.5142,1.519,1.5254,1.5305,1.5415,1.5434,1.5494,1.5487,1.5564,1.5496,1.5498,1.5492,1.549,1.5498,1.5578,1.558,1.5582,1.5584,0,1.4983,1.4982,1.5034,1.5088,1.5131,1.5174,1.5213,1.5245,1.5245,1.5291,1.5359,1.5399,1.5478,1.5544,1.5603,1.5626,1.5607,1.5604,1.5625,1.5631,1.5629,1.5635,1.5398,1.56,1.5598,1.5597,1.5596,1.5596,1.5112,1.5165,1.5199,1.5259,1.5288,1.5325,1.5377,1.5392,1.5447,1.551,1.5504,1.558,1.5619,1.5697,1.5724,1.5785,1.5759,1.5788,1.5796,1.5804,1.5813,1.5616,1.5795,1.5795,1.5794,1.5794,1.5794,0,1.529,1.5311,1.5365,1.5421,1.5469,1.5442,1.5485,1.5528,1.5594,1.5631,1.5682,1.5761,1.5825,1.5848,1.5911,1.5956,1.5949,1.5973,1.5972,1.5978,1.5831,1.5808,1.5978,1.5978,1.5978,1.5978,1.5978,1.5978,1.5389,1.5477,1.548,1.5584,1.5604,1.5677,1.5704,1.574,1.577,1.5858,1.591,1.5924,1.5957,1.6022,1.6081,1.6086,1.6112,1.6141,1.6143,1.6006,1.5988,1.597,1.595,1.6146,1.6146,1.6286,1.6287,1.6288]}]]